IW1CBG-3 Weather Reports


Display with metric or nautical units.
time (UTC)temp
F
wind
direction
speed
MPH
gust
MPH
rain 1hr
in
rain 24hr
in
rain mn
in
humidity
%
barometer
mb
20260506193749 56 121 7.0 0.0 0.00 0.00 0.00 76 1020.1
20260506192749 56 125 12.0 0.0 0.00 0.00 0.00 76 1019.7
20260506191749 56 100 4.0 0.0 0.00 0.00 0.00 73 1019.8
20260506190749 57 136 7.0 0.0 0.00 0.00 0.00 72 1018.8
20260506185749 57 102 7.0 0.0 0.00 0.00 0.00 72 1018.9
20260506184748 56 153 7.0 0.0 0.00 0.00 0.00 74 1019.0
20260506183748 58 107 7.0 0.0 0.00 0.00 0.00 69 1018.6
20260506182749 58 139 8.0 0.0 0.00 0.00 0.00 69 1018.4
20260506181749 58 152 8.0 0.0 0.00 0.00 0.00 71 1018.1
20260506180749 59 134 16.0 0.0 0.00 0.00 0.00 69 1017.8
20260506175749 59 161 6.0 0.0 0.00 0.00 0.00 71 1017.6
20260506174748 59 118 21.0 0.0 0.00 0.00 0.00 69 1017.3
20260506173748 60 139 4.0 0.0 0.00 0.00 0.00 68 1017.3
20260506172748 60 154 6.0 0.0 0.00 0.00 0.00 68 1016.7
20260506171749 60 147 9.0 0.0 0.00 0.00 0.00 70 1017.3
20260506170748 61 97 10.0 0.0 0.00 0.00 0.00 69 1016.7
20260506165749 61 126 11.0 0.0 0.00 0.00 0.00 69 1016.9
20260506163749 61 126 11.0 0.0 0.00 0.00 0.00 67 1016.7
20260506162750 61 105 8.0 0.0 0.00 0.00 0.00 68 1016.8
20260506161749 61 121 18.0 0.0 0.00 0.00 0.00 68 1016.7
20260506160748 62 126 14.0 0.0 0.00 0.00 0.00 66 1016.5
20260506155748 61 171 13.0 0.0 0.00 0.00 0.00 66 1016.4
20260506154749 61 120 15.0 0.0 0.00 0.00 0.00 67 1016.6
20260506153749 61 169 13.0 0.0 0.00 0.00 0.00 69 1016.7
20260506152749 61 158 15.0 0.0 0.00 0.00 0.00 68 1016.5
20260506151749 61 165 7.0 0.0 0.00 0.00 0.00 68 1016.9
20260506150748 61 138 14.0 0.0 0.00 0.00 0.00 69 1016.8
20260506145748 61 180 10.0 0.0 0.00 0.00 0.00 69 1016.8
20260506144748 61 168 7.0 0.0 0.00 0.00 0.00 68 1016.7
20260506143749 61 176 6.0 0.0 0.00 0.00 0.00 69 1016.9
20260506142749 61 146 9.0 0.0 0.00 0.00 0.00 68 1016.8
20260506141748 62 185 5.0 0.0 0.00 0.00 0.00 66 1016.6
20260506140749 63 110 8.0 0.0 0.00 0.00 0.00 66 1016.5
20260506135749 63 126 8.0 0.0 0.00 0.00 0.00 66 1016.3
20260506134749 62 124 21.0 0.0 0.00 0.00 0.00 67 1016.4
20260506133748 62 174 12.0 0.0 0.00 0.00 0.00 67 1017.2
20260506132748 61 188 9.0 0.0 0.00 0.00 0.00 68 1016.8
20260506131749 63 170 13.0 0.0 0.00 0.00 0.00 66 1016.4
20260506130748 63 169 13.0 0.0 0.00 0.00 0.00 64 1016.9
20260506125749 62 121 22.0 0.0 0.00 0.00 0.00 65 1016.9
20260506123749 63 176 10.0 0.0 0.00 0.00 0.00 63 1016.6
20260506122749 63 124 19.0 0.0 0.00 0.00 0.00 62 1016.5
20260506121749 62 154 15.0 0.0 0.00 0.00 0.00 63 1016.4
20260506120749 63 137 12.0 0.0 0.00 0.00 0.00 64 1016.3
20260506115749 63 142 22.0 0.0 0.00 0.00 0.00 62 1016.3
20260506114749 63 136 9.0 0.0 0.00 0.00 0.00 60 1016.2
20260506113749 62 177 20.0 0.0 0.00 0.00 0.00 61 1016.6
20260506112749 62 146 8.0 0.0 0.00 0.00 0.00 63 1016.9
20260506111750 62 121 17.0 0.0 0.00 0.00 0.00 63 1016.4
20260506110749 63 136 8.0 0.0 0.00 0.00 0.00 61 1016.7
20260506105749 62 117 17.0 0.0 0.00 0.00 0.00 62 1016.7
20260506104750 62 128 16.0 0.0 0.00 0.00 0.00 64 1016.8
20260506103749 61 142 18.0 0.0 0.00 0.00 0.00 65 1017.2
20260506102748 60 119 15.0 0.0 0.00 0.00 0.00 70 1017.5
20260506101749 60 115 11.0 0.0 0.00 0.00 0.00 70 1017.5
20260506100749 60 104 22.0 0.0 0.00 0.00 0.00 69 1017.4
20260506095748 60 121 16.0 0.0 0.00 0.00 0.00 69 1017.6
20260506094749 60 132 15.0 0.0 0.00 0.00 0.00 74 1017.4
20260506093749 59 125 13.0 0.0 0.00 0.00 0.00 72 1017.7
20260506092749 58 110 17.0 0.0 0.00 0.00 0.00 72 1018.0
20260506091749 58 146 7.0 0.0 0.00 0.00 0.00 74 1018.0
20260506090750 57 112 13.0 0.0 0.00 0.00 0.00 79 1018.0
20260506085749 57 95 10.0 0.0 0.00 0.00 0.00 79 1017.9
20260506083748 57 105 10.0 0.0 0.00 0.00 0.00 78 1018.2
20260506082748 58 113 18.0 0.0 0.00 0.00 0.00 76 1017.7
20260506081748 57 126 8.0 0.0 0.00 0.00 0.00 78 1018.0
20260506080749 57 88 5.0 0.0 0.00 0.00 0.00 77 1017.9
20260506072749 55 140 4.0 0.0 0.00 0.00 0.00 85 1018.4
20260506071749 54 142 5.0 0.0 0.00 0.00 0.00 86 1018.5
20260506070748 54 178 6.0 0.0 0.00 0.00 0.00 86 1018.8
20260506061749 50 179 3.0 0.0 0.00 0.00 0.00 99 1019.7
20260506060749 50 166 5.0 0.0 0.00 0.00 0.00 99 1019.7
20260506050748 48 93 2.0 0.0 0.00 0.00 0.00 99 1020.5
20260506043749 48 325 0.0 0.0 0.00 0.00 0.00 99 1021.0
20260506042749 48 341 0.0 0.0 0.00 0.00 0.00 99 1020.9
20260506041749 48 42 0.0 0.0 0.00 0.00 0.00 99 1021.0
20260506040750 48 101 0.0 0.0 0.00 0.00 0.00 99 1021.0
20260506035748 48 15 0.0 0.0 0.00 0.00 0.00 99 1021.1
20260506034749 48 132 2.0 0.0 0.00 0.00 0.00 99 1021.1
20260506033749 48 110 3.0 0.0 0.00 0.00 0.00 99 1021.1
20260506032749 48 292 4.0 0.0 0.00 0.00 0.00 99 1021.0
20260506031749 48 276 2.0 0.0 0.00 0.00 0.00 99 1021.5
20260506030749 48 121 2.0 0.0 0.00 0.00 0.00 99 1021.5
20260506025749 48 183 2.0 0.0 0.00 0.00 0.00 99 1021.7
20260506024749 48 173 0.0 0.0 0.00 0.00 0.00 99 1021.5
20260506023748 49 143 3.0 0.0 0.00 0.00 0.00 99 1021.5
20260506022749 49 144 1.0 0.0 0.00 0.00 0.00 99 1021.6
20260506021749 49 115 4.0 0.0 0.00 0.00 0.00 99 1022.0
20260506020749 49 183 0.0 0.0 0.00 0.00 0.00 99 1022.1
20260506015748 49 114 2.0 0.0 0.00 0.00 0.00 99 1022.1
20260506014749 49 137 5.0 0.0 0.00 0.00 0.00 99 1022.2
20260506013748 49 167 5.0 0.0 0.00 0.00 0.00 99 1022.1
20260506012748 49 147 0.0 0.0 0.00 0.00 0.00 99 1022.4
20260506011747 49 148 0.0 0.0 0.00 0.00 0.00 99 1022.5
20260506010750 49 165 2.0 0.0 0.00 0.00 0.00 99 1022.4
20260506005747 49 103 0.0 0.0 0.00 0.00 0.00 99 1022.4
20260506003747 49 89 0.0 0.0 0.00 0.00 0.00 99 1022.4
20260506002747 49 240 0.0 0.0 0.00 0.00 0.00 99 1022.8
20260506001748 49 148 2.0 0.0 0.00 0.00 0.00 99 1022.9
20260506000747 49 22 0.0 0.0 0.00 0.00 0.00 99 1023.1
20260505235747 49 117 0.0 0.0 0.00 0.00 0.00 99 1023.8
20260505234748 49 347 0.0 0.0 0.00 0.00 0.00 99 1023.9
20260505233747 49 135 0.0 0.0 0.00 0.00 0.00 99 1023.6
20260505232747 49 17 2.0 0.0 0.00 0.00 0.00 99 1023.8
20260505231748 49 153 6.0 0.0 0.00 0.00 0.00 99 1024.1
20260505230747 49 359 0.0 0.0 0.00 0.00 0.00 99 1023.7
20260505225747 49 44 0.0 0.0 0.00 0.00 0.00 99 1023.9
20260505224747 49 142 1.0 0.0 0.00 0.00 0.00 99 1023.8
20260505223747 49 174 3.0 0.0 0.00 0.00 0.00 99 1023.9
20260505222747 49 122 0.0 0.0 0.00 0.00 0.00 99 1023.8
20260505221747 49 164 3.0 0.0 0.00 0.00 0.00 99 1024.3
20260505220746 49 256 0.0 0.0 0.00 0.00 0.00 99 1024.4
20260505215747 49 131 1.0 0.0 0.00 0.00 0.00 99 1024.4
20260505214747 49 150 2.0 0.0 0.00 0.00 0.00 99 1024.4
20260505213748 49 165 2.0 0.0 0.00 0.00 0.00 99 1024.6
20260505212747 49 137 3.0 0.0 0.00 0.00 0.00 99 1024.6
20260505211747 49 133 0.0 0.0 0.00 0.00 0.00 99 1024.7
20260505210747 49 114 2.0 0.0 0.00 0.00 0.00 99 1024.9
20260505205747 49 92 2.0 0.0 0.00 0.00 0.00 99 1024.9
20260505203749 49 246 0.0 0.0 0.00 0.00 0.00 99 1024.9
20260505202749 49 313 2.0 0.0 0.00 0.00 0.00 99 1024.8
20260505201748 49 357 2.0 0.0 0.00 0.00 0.00 99 1024.9
20260505200748 49 125 2.0 0.0 0.00 0.00 0.00 99 1024.7
20260505195748 49 320 0.0 0.0 0.00 0.00 0.00 99 1024.6
20260505194747 49 125 3.0 0.0 0.00 0.00 0.00 99 1024.6